Tracking 22993 objects as of 10-May-2021
HD Live streaming from Space Station
objects crossing your sky now

SL-14 R/B

Track SL-14 R/B now!
10-day predictions


NORAD ID: 23793
Int'l Code: 1996-009G
Perigee: 1,415.3 km
Apogee: 1,485.7 km
Inclination: 82.6 °
Period: 114.7 minutes
Semi major axis: 7821 km
RCS: 5.1045 m2 (large)
Launch date: February 19, 1996
Source: Commonwealth of Independent States (former USSR) (CIS)
Launch site: PLESETSK MISSILE AND SPACE COMPLEX (PKMTR)

Note: This is a ROCKET BODY
aabbcc
Your satellite tracking list
Your tracking list is empty




NASA's NSSDC Master Catalog

Two Line Element Set (TLE):
1 23793U 96009G   21130.44312527  .00000031  00000-0  12796-3 0  9995
2 23793  82.5664 143.3881 0045040 173.7845 301.9783 12.55071645155551
Source of the keplerian elements: AFSPC